| time (UTC) | temp F | wind direction | speed knots | gust knots | rain 1hr in | rain 24hr in | rain mn in | humidity % | barometer mb |
| 20260503213021 | 48 | 63 | 0.9 | 4.3 | 0.00 | 0.00 | 0.00 | 96 | 1010.1 |
| 20260503211518 | 48 | 50 | 1.7 | 3.5 | 0.00 | 0.00 | 0.00 | 96 | 1010.2 |
| 20260503210017 | 48 | 38 | 2.6 | 4.3 | 0.00 | 0.00 | 0.00 | 96 | 1010.0 |
| 20260503204514 | 49 | 31 | 0.9 | 2.6 | 0.00 | 0.00 | 0.00 | 96 | 1010.3 |
| 20260503203034 | 49 | 360 | 1.7 | 4.3 | 0.00 | 0.00 | 0.00 | 97 | 1010.2 |
| 20260503201511 | 49 | 327 | 0.9 | 2.6 | 0.00 | 0.00 | 0.00 | 97 | 1010.2 |
| 20260503200012 | 50 | 303 | 0.0 | 3.5 | 0.00 | 0.00 | 0.00 | 97 | 1010.2 |
| 20260503194517 | 50 | 221 | 0.9 | 2.6 | 0.00 | 0.00 | 0.00 | 96 | 1010.3 |
| 20260503193007 | 51 | 221 | 0.0 | 1.7 | 0.00 | 0.00 | 0.00 | 96 | 1010.0 |
| 20260503191506 | 51 | 221 | 0.0 | 1.7 | 0.00 | 0.00 | 0.00 | 96 | 1010.1 |
| 20260503190007 | 51 | 221 | 0.0 | 2.6 | 0.00 | 0.00 | 0.00 | 95 | 1010.3 |
| 20260503184505 | 51 | 222 | 0.0 | 2.6 | 0.00 | 0.00 | 0.00 | 95 | 1010.2 |
| 20260503183003 | 51 | 195 | 0.9 | 1.7 | 0.00 | 0.00 | 0.00 | 94 | 1010.0 |
| 20260503181505 | 51 | 195 | 0.9 | 2.6 | 0.00 | 0.00 | 0.00 | 95 | 1010.2 |
| 20260503180003 | 52 | 205 | 1.7 | 3.5 | 0.00 | 0.00 | 0.00 | 94 | 1010.1 |
| 20260503174502 | 53 | 252 | 1.7 | 3.5 | 0.00 | 0.00 | 0.00 | 93 | 1010.0 |
| 20260503173002 | 53 | 217 | 1.7 | 3.5 | 0.00 | 0.00 | 0.00 | 90 | 1009.7 |
| 20260503171502 | 54 | 232 | 2.6 | 4.3 | 0.00 | 0.00 | 0.00 | 89 | 1009.7 |
| 20260503054540 | 56 | 186 | 0.9 | 4.3 | 0.00 | 0.00 | 0.00 | 86 | 1011.3 |
| 20260503053035 | 55 | 186 | 1.7 | 4.3 | 0.00 | 0.00 | 0.00 | 88 | 1011.4 |
| 20260503051518 | 54 | 187 | 1.7 | 4.3 | 0.00 | 0.00 | 0.00 | 90 | 1011.5 |
| 20260503050014 | 53 | 196 | 2.6 | 5.2 | 0.00 | 0.00 | 0.00 | 91 | 1011.5 |
| 20260503044513 | 52 | 182 | 1.7 | 4.3 | 0.00 | 0.00 | 0.00 | 92 | 1011.4 |
| 20260503043019 | 52 | 200 | 2.6 | 7.0 | 0.00 | 0.00 | 0.00 | 92 | 1011.6 |
| 20260503041511 | 52 | 175 | 0.9 | 2.6 | 0.00 | 0.00 | 0.00 | 92 | 1011.7 |
| 20260503033110 | 51 | 162 | 0.9 | 5.2 | 0.00 | 0.00 | 0.00 | 92 | 1011.5 |
| 20260503031558 | 51 | 203 | 5.2 | 8.7 | 0.00 | 0.00 | 0.00 | 92 | 1011.6 |
| 20260503030131 | 52 | 197 | 3.5 | 7.8 | 0.00 | 0.00 | 0.00 | 92 | 1011.6 |
| 20260503021546 | 54 | 196 | 2.6 | 9.6 | 0.00 | 0.00 | 0.00 | 89 | 1011.3 |
| 20260503020046 | 54 | 217 | 5.2 | 13.0 | 0.00 | 0.00 | 0.00 | 87 | 1011.4 |
| 20260503014544 | 54 | 198 | 4.3 | 9.6 | 0.00 | 0.00 | 0.00 | 87 | 1011.5 |
| 20260503013044 | 53 | 197 | 4.3 | 8.7 | 0.00 | 0.00 | 0.00 | 87 | 1011.7 |
| 20260503011543 | 55 | 219 | 4.3 | 10.4 | 0.00 | 0.00 | 0.00 | 85 | 1011.7 |
| 20260503010042 | 55 | 205 | 4.3 | 9.6 | 0.00 | 0.00 | 0.00 | 85 | 1011.7 |
| 20260503004541 | 55 | 202 | 4.3 | 9.6 | 0.00 | 0.00 | 0.00 | 84 | 1011.8 |
| 20260503003040 | 55 | 206 | 6.1 | 10.4 | 0.00 | 0.00 | 0.00 | 84 | 1011.9 |
| 20260503001538 | 55 | 216 | 4.3 | 8.7 | 0.00 | 0.00 | 0.00 | 85 | 1012.0 |
| 20260503000036 | 55 | 207 | 6.1 | 11.3 | 0.00 | 0.00 | 0.00 | 85 | 1012.1 |
| 20260502234546 | 53 | 221 | 7.0 | 10.4 | 0.00 | 0.00 | 0.00 | 89 | 1012.3 |
| 20260502233030 | 52 | 226 | 5.2 | 8.7 | 0.00 | 0.00 | 0.00 | 90 | 1012.5 |
| 20260502231530 | 52 | 219 | 6.1 | 10.4 | 0.00 | 0.00 | 0.00 | 90 | 1012.4 |
| 20260502230027 | 52 | 222 | 5.2 | 8.7 | 0.00 | 0.00 | 0.00 | 90 | 1012.6 |
| 20260502224527 | 53 | 219 | 6.1 | 9.6 | 0.00 | 0.00 | 0.00 | 89 | 1012.5 |
| 20260502223023 | 52 | 225 | 6.1 | 12.2 | 0.00 | 0.00 | 0.00 | 90 | 1012.5 |
| 20260502221523 | 52 | 234 | 6.1 | 13.9 | 0.00 | 0.00 | 0.00 | 90 | 1012.8 |
| 20260502220018 | 52 | 196 | 5.2 | 10.4 | 0.00 | 0.00 | 0.00 | 91 | 1012.8 |
| 20260502214533 | 51 | 225 | 5.2 | 13.9 | 0.00 | 0.00 | 0.00 | 92 | 1012.9 |